^^
Station Historical Data
Daily Summary for July 13, 2018 Units:  English    Metric   Both
« Previous Day
Next Day »
Daily Weekly Monthly Yearly Custom
  High: Low: Average:
Temperature: 83.5 °F 66.6 °F 72.8 °F
Dew Point: 74.7 °F 66.0 °F 70.1 °F
Humidity: 98% 70% 92%
Wind Speed: 6.0mph 0.0mph 1.1mph
Wind Gust: 3.8mph - -
Wind- - SSW
Pressure: 30.10 in 29.98 in -
Precipitation: 0.00 in    
Historical Graphs
 
 
Tabular Data for July 13, 2018
Time Temperature Dew Point Pressure Wind Wind Speed Wind Gust Humidity Rainfall Rate (Hourly) solar Conditions
00:04 69.8 °F 69.2 °F 30.02 in Calm     98% 0.00 in 0.00 W/m2 -RA
00:09 69.6 °F 69.0 °F 30.01 in Calm     98% 0.00 in 0.00 W/m2 -RA
00:14 69.6 °F 69.0 °F 30.00 in Calm     98% 0.00 in 0.00 W/m2 -RA
00:19 69.4 °F 68.9 °F 30.00 in Calm     98% 0.00 in 0.00 W/m2 -RA
00:24 69.3 °F 68.7 °F 30.00 in ENE 2.3 mph 1.3 mph 98% 0.00 in 0.00 W/m2 -RA
00:29 69.3 °F 68.7 °F 29.99 in ESE 1.2 mph 0.2 mph 98% 0.00 in 0.00 W/m2 -RA
00:34 69.1 °F 68.5 °F 29.99 in East 0.9 mph 0.2 mph 98% 0.00 in 0.00 W/m2 -RA
00:39 69.1 °F 68.5 °F 29.99 in Calm   0.2 mph 98% 0.00 in 0.00 W/m2 -RA
00:44 69.1 °F 68.5 °F 29.98 in North 1.2 mph 0.4 mph 98% 0.00 in 0.00 W/m2 -RA
00:49 69.1 °F 68.5 °F 29.98 in North 1.2 mph 0.2 mph 98% 0.00 in 0.00 W/m2 -RA
00:54 69.1 °F 68.5 °F 29.98 in Calm     98% 0.00 in 0.00 W/m2 -RA
00:59 68.9 °F 68.3 °F 29.98 in ESE 2.3 mph 0.4 mph 98% 0.00 in 0.00 W/m2 -RA
01:04 68.9 °F 68.3 °F 29.98 in Calm     98% 0.00 in 0.00 W/m2 -RA
01:09 68.9 °F 68.3 °F 29.99 in NW 1.2 mph 0.2 mph 98% 0.00 in 0.00 W/m2 -RA
01:14 68.9 °F 68.3 °F 29.99 in Calm     98% 0.00 in 0.00 W/m2 -RA
01:19 68.5 °F 68.0 °F 30.00 in WSW 1.2 mph   98% 0.00 in 0.00 W/m2 -RA
01:24 68.5 °F 68.0 °F 30.01 in West 2.3 mph 0.7 mph 98% 0.00 in 0.00 W/m2 -RA
01:29 68.5 °F 68.0 °F 30.02 in Calm     98% 0.00 in 0.00 W/m2 -RA
01:34 68.5 °F 68.0 °F 30.02 in Calm   0.2 mph 98% 0.00 in 0.00 W/m2 BKN
01:39 68.5 °F 68.0 °F 30.00 in Calm     98% 0.00 in 0.00 W/m2 BKN
01:44 68.5 °F 68.0 °F 30.04 in NNE 2.3 mph 0.7 mph 98% 0.00 in 0.00 W/m2 BKN
01:49 68.4 °F 67.8 °F 30.03 in Calm   0.2 mph 98% 0.00 in 0.00 W/m2 -RA
01:54 68.4 °F 67.8 °F 30.04 in Calm     98% 0.00 in 0.00 W/m2 -RA
01:59 68.4 °F 67.8 °F 30.05 in NW 2.3 mph 0.7 mph 98% 0.00 in 0.00 W/m2 -RA
02:04 68.4 °F 67.8 °F 30.05 in Calm   0.2 mph 98% 0.00 in 0.00 W/m2 SCT
02:09 68.4 °F 67.8 °F 30.05 in Calm     98% 0.00 in 0.00 W/m2 SCT
02:14 68.4 °F 67.8 °F 30.04 in Calm     98% 0.00 in 0.00 W/m2 SCT
02:19 68.4 °F 67.8 °F 30.04 in Calm     98% 0.00 in 0.00 W/m2 SCT
02:24 68.4 °F 67.8 °F 30.04 in Calm     98% 0.00 in 0.00 W/m2 SCT
02:29 68.4 °F 67.8 °F 30.05 in Calm     98% 0.00 in 0.00 W/m2 SCT
02:34 68.4 °F 67.8 °F 30.05 in Calm   0.2 mph 98% 0.00 in 0.00 W/m2 SCT
02:39 68.2 °F 67.6 °F 30.06 in Calm     98% 0.00 in 0.00 W/m2 SCT
02:44 68.0 °F 67.4 °F 30.05 in Calm     98% 0.00 in 0.00 W/m2 SCT
02:49 68.0 °F 67.4 °F 30.05 in Calm     98% 0.00 in 0.00 W/m2 SCT
02:54 68.0 °F 67.4 °F 30.05 in Calm     98% 0.00 in 0.00 W/m2 SCT
02:59 68.0 °F 67.4 °F 30.05 in Calm     98% 0.00 in 0.00 W/m2 SCT
03:04 67.8 °F 67.2 °F 30.04 in Calm     98% 0.00 in 0.00 W/m2 CLR
03:09 67.8 °F 67.2 °F 30.03 in Calm     98% 0.00 in 0.00 W/m2 CLR
03:14 67.8 °F 67.2 °F 30.02 in Calm     98% 0.00 in 0.00 W/m2 CLR
03:19 67.6 °F 67.1 °F 30.03 in Calm     98% 0.00 in 0.00 W/m2 CLR
03:24 67.6 °F 67.1 °F 30.03 in Calm     98% 0.00 in 0.00 W/m2 CLR
03:29 67.5 °F 66.9 °F 30.02 in Calm     98% 0.00 in 0.00 W/m2 CLR
03:34 67.3 °F 66.7 °F 30.02 in Calm     98% 0.00 in 0.00 W/m2 CLR
03:39 67.1 °F 66.5 °F 30.03 in Calm     98% 0.00 in 0.00 W/m2 CLR
03:44 67.1 °F 66.5 °F 30.02 in Calm     98% 0.00 in 0.00 W/m2 CLR
03:49 67.1 °F 66.5 °F 30.02 in Calm     98% 0.00 in 0.00 W/m2 CLR
03:54 67.1 °F 66.5 °F 30.02 in Calm     98% 0.00 in 0.00 W/m2 CLR
03:59 67.1 °F 66.5 °F 30.02 in Calm     98% 0.00 in 0.00 W/m2 CLR
04:04 67.1 °F 66.5 °F 30.02 in Calm     98% 0.00 in 0.00 W/m2 CLR
04:09 67.1 °F 66.5 °F 30.02 in Calm     98% 0.00 in 0.00 W/m2 CLR
04:14 67.1 °F 66.5 °F 30.03 in Calm     98% 0.00 in 0.00 W/m2 CLR
04:19 67.1 °F 66.5 °F 30.03 in Calm     98% 0.00 in 0.00 W/m2 CLR
04:24 66.9 °F 66.3 °F 30.03 in Calm     98% 0.00 in 0.00 W/m2 CLR
04:29 66.9 °F 66.3 °F 30.03 in Calm     98% 0.00 in 0.00 W/m2 CLR
04:34 66.9 °F 66.3 °F 30.03 in Calm     98% 0.00 in 0.00 W/m2 CLR
04:39 66.9 °F 66.3 °F 30.03 in Calm     98% 0.00 in 0.00 W/m2 CLR
04:44 66.9 °F 66.3 °F 30.03 in Calm     98% 0.00 in 0.00 W/m2 CLR
04:49 66.9 °F 66.3 °F 30.04 in Calm     98% 0.00 in 0.00 W/m2 CLR
04:54 66.6 °F 66.0 °F 30.04 in Calm     98% 0.00 in 0.00 W/m2 CLR
04:59 66.6 °F 66.0 °F 30.04 in Calm     98% 0.00 in 0.00 W/m2 CLR
05:04 66.6 °F 66.0 °F 30.05 in Calm     98% 0.00 in 0.00 W/m2 BKN
05:09 66.6 °F 66.0 °F 30.05 in Calm     98% 0.00 in 0.00 W/m2 BKN
05:14 66.6 °F 66.0 °F 30.06 in Calm     98% 0.00 in 0.00 W/m2 BKN
05:19 66.6 °F 66.0 °F 30.06 in Calm     98% 0.00 in 152.20 W/m2 BKN
05:24 66.6 °F 66.0 °F 30.06 in Calm     98% 0.00 in 174.40 W/m2 BKN
05:29 66.9 °F 66.3 °F 30.08 in Calm   0.7 mph 98% 0.00 in 195.60 W/m2 BKN
05:34 66.9 °F 66.3 °F 30.06 in Calm   0.2 mph 98% 0.00 in 219.90 W/m2 BKN
05:39 67.1 °F 66.5 °F 30.08 in Calm     98% 0.00 in 239.10 W/m2 BKN
05:44 67.3 °F 66.7 °F 30.08 in Calm     98% 0.00 in 250.20 W/m2 BKN
05:49 67.5 °F 66.9 °F 30.08 in Calm     98% 0.00 in 259.30 W/m2 OVC
05:54 67.5 °F 66.9 °F 30.08 in Calm     98% 0.00 in 289.60 W/m2 OVC
05:59 67.5 °F 66.9 °F 30.08 in Calm     98% 0.00 in 295.60 W/m2 OVC
06:04 67.5 °F 66.9 °F 30.07 in Calm     98% 0.00 in 295.60 W/m2 OVC
06:09 67.6 °F 67.1 °F 30.09 in Calm     98% 0.00 in 35.00 W/m2 OVC
06:14 67.8 °F 67.2 °F 30.08 in Calm     98% 0.00 in 303.70 W/m2 OVC
06:19 68.0 °F 67.4 °F 30.09 in Calm     98% 0.00 in 303.70 W/m2 -RA
06:24 68.0 °F 67.4 °F 30.09 in Calm     98% 0.00 in 298.70 W/m2 -RA
06:29 68.2 °F 67.6 °F 30.09 in South 1.2 mph 0.2 mph 98% 0.00 in 302.70 W/m2 -RA
06:34 68.4 °F 67.8 °F 30.08 in Calm     98% 0.00 in 306.70 W/m2 -RA
06:39 68.4 °F 67.8 °F 30.09 in SW 2.3 mph 0.9 mph 98% 0.00 in 318.80 W/m2 -RA
06:44 68.4 °F 67.8 °F 30.09 in South 2.3 mph 0.7 mph 98% 0.00 in 292.60 W/m2 -RA
06:49 68.4 °F 67.8 °F 30.09 in South 1.2 mph 0.2 mph 98% 0.00 in 284.50 W/m2 -RA
06:54 68.9 °F 68.3 °F 30.09 in Calm   0.2 mph 98% 0.00 in 301.70 W/m2 -RA
06:59 68.9 °F 68.3 °F 30.10 in West 2.0 mph 0.9 mph 98% 0.00 in 332.00 W/m2 -RA
07:04 69.3 °F 68.7 °F 30.10 in Calm   0.7 mph 98% 0.00 in 357.20 W/m2 -RA
07:09 69.8 °F 69.2 °F 30.10 in SSW 1.2 mph 0.9 mph 98% 0.00 in 356.20 W/m2 -RA
07:14 70.0 °F 69.4 °F 30.09 in South 2.3 mph 0.9 mph 98% 0.00 in 351.20 W/m2 -RA
07:19 70.2 °F 69.6 °F 30.10 in SSE 1.2 mph 0.4 mph 98% 0.00 in 345.10 W/m2 BKN
07:24 70.3 °F 69.7 °F 30.10 in WSW 2.3 mph 0.7 mph 98% 0.00 in 328.90 W/m2 BKN
07:29 70.5 °F 69.9 °F 30.09 in SE 1.2 mph 0.2 mph 98% 0.00 in 328.90 W/m2 BKN
07:34 70.5 °F 69.9 °F 30.08 in Calm     98% 0.00 in 327.90 W/m2 BKN
07:39 70.5 °F 69.9 °F 30.08 in Calm     98% 0.00 in 327.90 W/m2 BKN
07:44 70.9 °F 70.3 °F 30.08 in Calm     98% 0.00 in 333.00 W/m2 BKN
07:49 71.1 °F 70.5 °F 30.07 in Calm     98% 0.00 in 351.20 W/m2 BKN
07:54 71.4 °F 70.8 °F 30.07 in Calm     98% 0.00 in 351.20 W/m2 BKN
07:59 71.4 °F 70.8 °F 30.08 in SW 1.2 mph 0.2 mph 98% 0.00 in 367.30 W/m2 BKN
08:04 71.4 °F 70.8 °F 30.09 in SSW 1.2 mph 0.4 mph 98% 0.00 in 367.30 W/m2 -RA
08:09 71.4 °F 70.8 °F 30.09 in SSE 1.2 mph 0.4 mph 98% 0.00 in 378.40 W/m2 -RA
08:14 71.8 °F 71.2 °F 30.08 in Calm     98% 0.00 in 378.40 W/m2 -RA
08:19 71.8 °F 71.2 °F 30.09 in Calm     98% 0.00 in 370.40 W/m2 -RA
08:24 72.5 °F 71.3 °F 30.08 in South 2.3 mph 0.4 mph 96% 0.00 in 370.40 W/m2 -RA
08:29 72.7 °F 71.5 °F 30.08 in ESE 2.0 mph 0.4 mph 96% 0.00 in 380.50 W/m2 -RA
08:34 72.7 °F 71.5 °F 30.07 in SSW 1.2 mph 0.2 mph 96% 0.00 in 395.60 W/m2 -RA
08:39 73.0 °F 71.5 °F 30.07 in Calm   0.4 mph 95% 0.00 in 378.40 W/m2 -RA
08:44 74.3 °F 71.5 °F 30.07 in SW 3.5 mph 1.8 mph 91% 0.00 in 503.70 W/m2 -RA
08:49 73.8 °F 71.6 °F 30.08 in SSW 2.3 mph 1.3 mph 93% 0.00 in 812.70 W/m2 -RA
08:54 73.6 °F 71.4 °F 30.08 in SE 2.3 mph 0.4 mph 93% 0.00 in 450.20 W/m2 -RA
08:59 73.4 °F 71.3 °F 30.09 in SW 3.5 mph 0.7 mph 93% 0.00 in 362.30 W/m2 -RA
09:04 73.0 °F 70.9 °F 30.09 in Calm   0.4 mph 93% 0.00 in 361.30 W/m2 BKN
09:09 73.0 °F 71.5 °F 30.09 in West 2.3 mph 0.9 mph 95% 0.00 in 369.30 W/m2 BKN
09:14 73.0 °F 70.9 °F 30.08 in NW 3.5 mph 2.0 mph 93% 0.00 in 369.30 W/m2 BKN
09:19 73.4 °F 71.3 °F 30.08 in Calm   0.2 mph 93% 0.00 in 399.70 W/m2 BKN
09:24 73.0 °F 70.9 °F 30.08 in WSW 1.2 mph 1.1 mph 93% 0.00 in 494.60 W/m2 BKN
09:29 73.0 °F 70.9 °F 30.07 in SW 3.5 mph 1.6 mph 93% 0.00 in 395.60 W/m2 BKN
09:34 73.0 °F 70.9 °F 30.07 in Calm   0.2 mph 93% 0.00 in 394.60 W/m2 SCT
09:39 73.4 °F 71.9 °F 30.08 in WSW 2.0 mph 1.1 mph 95% 0.00 in 396.60 W/m2 SCT
09:44 73.6 °F 71.4 °F 30.08 in SE 2.3 mph 0.9 mph 93% 0.00 in 408.70 W/m2 SCT
09:49 73.8 °F 71.6 °F 30.08 in NNE 2.0 mph 1.6 mph 93% 0.00 in 479.40 W/m2 SCT
09:54 73.9 °F 71.8 °F 30.08 in SSW 3.5 mph 0.7 mph 93% 0.00 in 761.20 W/m2 SCT
09:59 74.3 °F 72.1 °F 30.08 in SSE 1.2 mph 1.6 mph 93% 0.00 in 761.20 W/m2 SCT
10:04 74.3 °F 71.5 °F 30.09 in SW 1.2 mph 1.3 mph 91% 0.00 in 791.50 W/m2 -RA
10:09 74.3 °F 71.5 °F 30.09 in SSW 3.5 mph 2.5 mph 91% 0.00 in 774.40 W/m2 -RA
10:14 75.0 °F 71.9 °F 30.10 in SW 5.8 mph 2.9 mph 90% 0.00 in 774.40 W/m2 -RA
10:19 74.5 °F 71.4 °F 30.10 in North 3.5 mph 2.5 mph 90% 0.00 in 827.90 W/m2 -RA
10:24 73.9 °F 71.1 °F 30.10 in WNW 4.6 mph 2.5 mph 91% 0.00 in 553.20 W/m2 -RA
10:29 73.9 °F 71.1 °F 30.10 in West 2.3 mph 1.6 mph 91% 0.00 in 421.90 W/m2 -RA
10:34 73.9 °F 71.1 °F 30.09 in West 3.5 mph 2.5 mph 91% 0.00 in 382.50 W/m2 -RA
10:39 73.0 °F 70.9 °F 30.10 in SW 2.3 mph 2.7 mph 93% 0.00 in 379.40 W/m2 -RA
10:44 73.0 °F 71.8 °F 30.09 in SW 2.3 mph 1.3 mph 96% 0.00 in 379.40 W/m2 -RA
10:49 72.9 °F 71.7 °F 30.09 in Calm     96% 0.00 in 389.60 W/m2 SCT
10:54 72.9 °F 72.3 °F 30.10 in SSE 2.0 mph 0.4 mph 98% 0.00 in 370.40 W/m2 SCT
10:59 73.0 °F 72.4 °F 30.09 in SW 2.3 mph 1.1 mph 98% 0.00 in 380.50 W/m2 SCT
11:04 73.4 °F 72.2 °F 30.08 in ESE 0.9 mph 0.2 mph 96% 0.00 in 456.20 W/m2 FEW
11:09 73.9 °F 72.4 °F 30.08 in SW 1.2 mph 0.4 mph 95% 0.00 in 466.30 W/m2 FEW
11:14 74.5 °F 72.3 °F 30.09 in SW 2.3 mph 1.6 mph 93% 0.00 in 774.40 W/m2 FEW
11:19 74.8 °F 72.7 °F 30.08 in West 3.5 mph 1.1 mph 93% 0.00 in 774.40 W/m2 FEW
11:24 75.4 °F 73.2 °F 30.09 in West 3.5 mph 1.3 mph 93% 0.00 in 840.00 W/m2 FEW
11:29 75.0 °F 72.2 °F 30.09 in WSW 4.0 mph 2.5 mph 91% 0.00 in 841.00 W/m2 FEW
11:34 75.6 °F 72.7 °F 30.09 in West 3.5 mph 2.2 mph 91% 0.00 in 800.60 W/m2 FEW
11:39 75.9 °F 73.1 °F 30.09 in West 5.8 mph 3.4 mph 91% 0.00 in 835.00 W/m2 FEW
11:44 76.5 °F 72.6 °F 30.09 in SW 4.0 mph 2.0 mph 88% 0.00 in 840.00 W/m2 FEW
11:49 77.2 °F 72.7 °F 30.09 in North 4.6 mph 2.9 mph 86% 0.00 in 862.20 W/m2 FEW
11:54 77.5 °F 72.7 °F 30.09 in NNE 4.6 mph 3.6 mph 85% 0.00 in 876.40 W/m2 FEW
11:59 77.4 °F 72.8 °F 30.09 in West 5.8 mph 3.8 mph 86% 0.00 in 860.20 W/m2 FEW
12:04 76.8 °F 72.3 °F 30.09 in WSW 3.5 mph 3.8 mph 86% 0.00 in 803.70 W/m2 BKN
12:09 77.2 °F 72.7 °F 30.09 in North 3.5 mph 2.9 mph 86% 0.00 in 809.70 W/m2 BKN
12:14 77.5 °F 72.7 °F 30.08 in NE 2.3 mph 2.5 mph 85% 0.00 in 846.10 W/m2 BKN
12:19 78.4 °F 72.8 °F 30.09 in WNW 3.5 mph 1.6 mph 83% 0.00 in 873.30 W/m2 BKN
12:24 79.0 °F 73.4 °F 30.08 in NE 3.5 mph 2.9 mph 83% 0.00 in 860.20 W/m2 BKN
12:29 79.3 °F 73.7 °F 30.08 in SSW 2.3 mph 1.8 mph 83% 0.00 in 873.30 W/m2 BKN
12:34 79.0 °F 72.6 °F 30.08 in ESE 4.6 mph 2.5 mph 81% 0.00 in 878.40 W/m2 BKN
12:39 79.0 °F 72.6 °F 30.06 in WNW 1.2 mph 2.5 mph 81% 0.00 in 842.00 W/m2 BKN
12:44 79.5 °F 73.2 °F 30.06 in NW 2.3 mph 1.3 mph 81% 0.00 in 881.40 W/m2 BKN
12:49 79.9 °F 73.5 °F 30.08 in WNW 6.0 mph 3.4 mph 81% 0.00 in 866.30 W/m2 BKN
12:54 80.2 °F 72.8 °F 30.06 in South 2.3 mph 1.8 mph 78% 0.00 in 864.30 W/m2 BKN
12:59 80.1 °F 73.3 °F 30.06 in SW 3.5 mph 2.2 mph 80% 0.00 in 880.40 W/m2 BKN
13:04 80.1 °F 73.3 °F 30.08 in SW 3.5 mph 2.2 mph 80% 0.00 in 880.40 W/m2 SCT
13:09 81.9 °F 73.2 °F 30.06 in SW 4.9 mph 2.7 mph 75% 0.00 in 867.30 W/m2 SCT
13:14 81.9 °F 72.8 °F 30.06 in WNW 2.3 mph 2.5 mph 74% 0.00 in 867.30 W/m2 SCT
13:19 82.0 °F 73.3 °F 30.06 in West 2.3 mph 1.3 mph 75% 0.00 in 882.40 W/m2 SCT
13:24 83.1 °F 74.4 °F 30.06 in East 2.3 mph 1.1 mph 75% 0.00 in 889.50 W/m2 SCT
13:29 83.1 °F 72.7 °F 30.06 in WNW 3.5 mph 2.2 mph 71% 0.00 in 895.60 W/m2 SCT
13:34 83.5 °F 73.9 °F 30.06 in West 2.3 mph 1.8 mph 73% 0.00 in 882.40 W/m2 SCT
13:39 81.9 °F 72.8 °F 30.05 in SW 2.3 mph 2.0 mph 74% 0.00 in 887.50 W/m2 SCT
13:44 82.0 °F 72.5 °F 30.06 in NNW 4.6 mph 3.6 mph 73% 0.00 in 887.50 W/m2 SCT
13:49 81.3 °F 72.6 °F 30.06 in WNW 3.5 mph 2.2 mph 75% 0.00 in 845.10 W/m2 SCT
13:54 82.0 °F 73.3 °F 30.06 in ESE 1.2 mph 0.7 mph 75% 0.00 in 845.10 W/m2 SCT
13:59 82.8 °F 72.4 °F 30.05 in West 4.0 mph 1.6 mph 71% 0.00 in 873.30 W/m2 SCT
14:04 82.8 °F 72.4 °F 30.05 in West 3.5 mph 2.2 mph 71% 0.00 in 868.30 W/m2 FEW
14:09 83.5 °F 72.7 °F 30.05 in Calm   0.9 mph 70% 0.00 in 883.40 W/m2 FEW
14:14 82.6 °F 73.0 °F 30.05 in North 2.3 mph 0.4 mph 73% 0.00 in 883.40 W/m2 FEW
14:19 82.8 °F 72.4 °F 30.05 in WSW 1.2 mph 0.2 mph 71% 0.00 in 883.40 W/m2 FEW
14:24 81.9 °F 72.8 °F 30.05 in NW 3.5 mph 2.0 mph 74% 0.00 in 853.10 W/m2 FEW
14:29 81.0 °F 71.5 °F 30.05 in ESE 1.2 mph 0.4 mph 73% 0.00 in 853.10 W/m2 FEW
14:34 81.0 °F 72.7 °F 30.05 in Calm     76% 0.00 in 800.60 W/m2 FEW
14:39 81.0 °F 72.7 °F 30.06 in SW 3.5 mph 0.9 mph 76% 0.00 in 792.50 W/m2 FEW
14:44 81.3 °F 72.6 °F 30.07 in SW 2.3 mph 0.7 mph 75% 0.00 in 800.60 W/m2 FEW
14:49 80.4 °F 72.9 °F 30.07 in Calm     78% 0.00 in 793.60 W/m2 FEW
14:54 80.8 °F 73.3 °F 30.07 in North 2.3 mph 1.1 mph 78% 0.00 in 769.30 W/m2 FEW
14:59 80.4 °F 72.2 °F 30.06 in West 2.3 mph 0.9 mph 76% 0.00 in 623.90 W/m2 FEW
15:04 80.8 °F 72.5 °F 30.06 in West 3.5 mph 1.8 mph 76% 0.00 in 721.80 W/m2 FEW
15:09 80.8 °F 72.5 °F 30.06 in West 3.5 mph 1.3 mph 76% 0.00 in 808.70 W/m2 FEW
15:14 80.1 °F 72.6 °F 30.05 in West 1.2 mph 1.3 mph 78% 0.00 in 784.50 W/m2 FEW
15:19 79.3 °F 72.3 °F 30.05 in NNW 3.5 mph 1.3 mph 79% 0.00 in 570.30 W/m2 FEW
15:24 79.2 °F 72.8 °F 30.06 in NW 2.0 mph 0.7 mph 81% 0.00 in 420.90 W/m2 FEW
15:29 77.5 °F 73.7 °F 30.05 in Calm     88% 0.00 in 380.50 W/m2 FEW
15:34 76.5 °F 74.3 °F 30.06 in Calm     93% 0.00 in 406.70 W/m2 FEW
15:39 77.5 °F 74.7 °F 30.05 in Calm     91% 0.00 in 452.20 W/m2 FEW
15:44 78.4 °F 74.6 °F 30.06 in West 2.3 mph 0.4 mph 88% 0.00 in 798.60 W/m2 FEW
15:49 78.4 °F 74.6 °F 30.06 in West 1.2 mph 0.4 mph 88% 0.00 in 739.00 W/m2 FEW
15:54 78.4 °F 73.9 °F 30.07 in WSW 3.5 mph 1.3 mph 86% 0.00 in 623.90 W/m2 FEW
15:59 79.0 °F 73.4 °F 30.07 in WSW 2.9 mph 1.3 mph 83% 0.00 in 707.70 W/m2 FEW
16:04 78.4 °F 73.6 °F 30.07 in West 1.2 mph 2.0 mph 85% 0.00 in 708.70 W/m2 -RA
16:09 78.4 °F 73.6 °F 30.07 in North 2.9 mph 1.1 mph 85% 0.00 in 457.20 W/m2 -RA
16:14 78.3 °F 73.7 °F 30.07 in Calm   0.7 mph 86% 0.00 in 429.90 W/m2 -RA
16:19 78.3 °F 73.7 °F 30.07 in SSW 3.5 mph 0.4 mph 86% 0.00 in 425.90 W/m2 -RA
16:24 78.1 °F 73.2 °F 30.07 in Calm     85% 0.00 in 443.10 W/m2 -RA
16:29 78.4 °F 72.8 °F 30.07 in SW 2.3 mph 1.1 mph 83% 0.00 in 417.80 W/m2 -RA
16:34 77.7 °F 73.2 °F 30.07 in Calm   0.4 mph 86% 0.00 in 410.80 W/m2 -RA
16:38 78.1 °F 73.2 °F 30.07 in West 2.3 mph 0.2 mph 85% 0.00 in 423.90 W/m2 -RA
16:54 77.7 °F 73.2 °F 30.06 in SW 1.2 mph 0.2 mph 86% 0.00 in 384.50 W/m2 -RA
16:59 77.7 °F 72.1 °F 30.06 in SW 3.5 mph 0.4 mph 83% 0.00 in 387.50 W/m2 -RA
17:04 77.7 °F 72.1 °F 30.06 in NW 2.3 mph 1.6 mph 83% 0.00 in 389.60 W/m2 SCT
17:09 77.7 °F 72.1 °F 30.06 in West 1.2 mph 0.9 mph 83% 0.00 in 396.60 W/m2 SCT
17:14 77.7 °F 73.2 °F 30.06 in Calm   0.4 mph 86% 0.00 in 380.50 W/m2 SCT
17:19 77.5 °F 72.7 °F 30.06 in WSW 1.2 mph 0.9 mph 85% 0.00 in 380.50 W/m2 SCT
17:24 76.5 °F 72.6 °F 30.05 in Calm   0.7 mph 88% 0.00 in 385.50 W/m2 SCT
17:29 77.2 °F 73.3 °F 30.05 in Calm     88% 0.00 in 419.80 W/m2 SCT
17:34 77.2 °F 73.3 °F 30.04 in Calm   0.4 mph 88% 0.00 in 641.00 W/m2 SCT
17:39 77.4 °F 72.8 °F 30.04 in Calm     86% 0.00 in 641.00 W/m2 SCT
17:44 77.4 °F 72.8 °F 30.04 in Calm     86% 0.00 in 612.80 W/m2 SCT
17:49 76.8 °F 72.3 °F 30.03 in Calm     86% 0.00 in 408.70 W/m2 SCT
17:54 76.8 °F 72.3 °F 30.02 in Calm     86% 0.00 in 408.70 W/m2 SCT
17:59 76.5 °F 70.9 °F 30.02 in Calm     83% 0.00 in 387.50 W/m2 SCT
18:04 76.5 °F 70.9 °F 30.02 in Calm     83% 0.00 in 408.70 W/m2 FEW
18:09 76.5 °F 70.9 °F 30.02 in Calm     83% 0.00 in 408.70 W/m2 FEW
18:14 76.5 °F 70.9 °F 30.02 in Calm     83% 0.00 in 355.20 W/m2 FEW
18:19 76.5 °F 70.9 °F 30.02 in Calm     83% 0.00 in 355.20 W/m2 FEW
18:24 77.2 °F 70.9 °F 30.02 in Calm     81% 0.00 in 338.00 W/m2 FEW
18:29 77.2 °F 70.9 °F 30.02 in Calm     81% 0.00 in 342.10 W/m2 FEW
18:34 77.2 °F 70.9 °F 30.03 in SW 2.3 mph 1.1 mph 81% 0.00 in 342.10 W/m2 FEW
18:39 77.2 °F 70.9 °F 30.03 in Calm   1.1 mph 81% 0.00 in 338.00 W/m2 FEW
18:44 76.3 °F 70.7 °F 30.03 in SW 2.3 mph 1.6 mph 83% 0.00 in 378.40 W/m2 FEW
18:49 76.5 °F 70.9 °F 30.03 in SW 1.2 mph 0.4 mph 83% 0.00 in 612.80 W/m2 FEW
18:54 76.5 °F 70.2 °F 30.04 in West 2.3 mph 1.6 mph 81% 0.00 in 354.20 W/m2 FEW
18:59 76.5 °F 70.2 °F 30.02 in Calm   1.1 mph 81% 0.00 in 355.20 W/m2 FEW
19:04 76.3 °F 70.7 °F 30.02 in Calm     83% 0.00 in 347.10 W/m2 CLR
19:09 75.9 °F 70.4 °F 30.04 in Calm     83% 0.00 in 337.00 W/m2 CLR
19:14 75.9 °F 70.4 °F 30.04 in Calm     83% 0.00 in 337.00 W/m2 CLR
19:19 75.9 °F 69.7 °F 30.04 in Calm     81% 0.00 in 316.80 W/m2 CLR
19:24 75.9 °F 69.7 °F 30.04 in Calm     81% 0.00 in 316.80 W/m2 CLR
19:29 75.0 °F 70.2 °F 30.02 in Calm     85% 0.00 in 299.70 W/m2 CLR
19:34 75.0 °F 70.5 °F 30.04 in Calm     86% 0.00 in 316.80 W/m2 CLR
19:39 75.0 °F 70.5 °F 30.02 in Calm     86% 0.00 in 316.80 W/m2 CLR
19:44 74.8 °F 70.4 °F 30.04 in Calm     86% 0.00 in 355.20 W/m2 CLR
19:49 74.8 °F 71.0 °F 30.04 in Calm     88% 0.00 in 311.80 W/m2 CLR
19:54 74.3 °F 71.2 °F 30.04 in Calm     90% 0.00 in 304.70 W/m2 CLR
19:59 73.9 °F 71.1 °F 30.04 in Calm     91% 0.00 in 296.60 W/m2 CLR
20:04 73.8 °F 71.0 °F 30.04 in Calm     91% 0.00 in 296.60 W/m2 CLR
20:09 73.8 °F 71.0 °F 30.04 in Calm     91% 0.00 in 284.50 W/m2 CLR
20:14 73.0 °F 70.3 °F 30.04 in Calm     91% 0.00 in 279.50 W/m2 CLR
20:19 73.0 °F 70.3 °F 30.04 in Calm     91% 0.00 in 269.40 W/m2 CLR
20:24 72.3 °F 70.8 °F 30.04 in Calm     95% 0.00 in 263.30 W/m2 CLR
20:29 72.3 °F 70.8 °F 30.04 in Calm     95% 0.00 in 258.30 W/m2 CLR
20:34 72.1 °F 70.0 °F 30.04 in Calm     93% 0.00 in 236.00 W/m2 CLR
20:39 72.0 °F 69.8 °F 30.04 in Calm     93% 0.00 in 223.90 W/m2 CLR
20:44 71.4 °F 70.2 °F 30.04 in Calm     96% 0.00 in 212.80 W/m2 CLR
20:49 71.1 °F 69.9 °F 30.04 in Calm     96% 0.00 in 202.70 W/m2 CLR
20:54 71.1 °F 69.9 °F 30.04 in Calm     96% 0.00 in 202.70 W/m2 CLR
20:59 70.9 °F 69.7 °F 30.04 in Calm     96% 0.00 in 141.10 W/m2 CLR
21:04 70.5 °F 69.3 °F 30.04 in Calm     96% 0.00 in 0.00 W/m2 CLR
21:09 70.5 °F 69.9 °F 30.04 in Calm     98% 0.00 in 0.00 W/m2 CLR
21:14 70.3 °F 69.1 °F 30.06 in Calm     96% 0.00 in 0.00 W/m2 CLR
21:19 70.2 °F 69.0 °F 30.06 in Calm     96% 0.00 in 0.00 W/m2 CLR
21:24 70.0 °F 68.8 °F 30.06 in Calm     96% 0.00 in 0.00 W/m2 CLR
21:29 70.0 °F 68.8 °F 30.06 in Calm     96% 0.00 in 0.00 W/m2 CLR
21:34 69.8 °F 69.2 °F 30.06 in Calm     98% 0.00 in 0.00 W/m2 CLR
21:39 69.8 °F 69.2 °F 30.06 in Calm     98% 0.00 in 0.00 W/m2 CLR
21:44 69.6 °F 69.0 °F 30.07 in Calm     98% 0.00 in 0.00 W/m2 CLR
21:49 69.6 °F 69.0 °F 30.06 in Calm     98% 0.00 in 0.00 W/m2 CLR
21:54 69.4 °F 68.9 °F 30.06 in Calm     98% 0.00 in 0.00 W/m2 CLR
21:59 69.4 °F 68.9 °F 30.06 in Calm     98% 0.00 in 0.00 W/m2 CLR
22:04 69.4 °F 68.9 °F 30.06 in Calm     98% 0.00 in 0.00 W/m2 CLR
22:09 69.4 °F 68.9 °F 30.06 in Calm     98% 0.00 in 0.00 W/m2 CLR
22:14 69.4 °F 68.9 °F 30.06 in Calm     98% 0.00 in 0.00 W/m2 CLR
22:19 69.4 °F 68.9 °F 30.06 in Calm     98% 0.00 in 0.00 W/m2 CLR
22:24 69.3 °F 68.7 °F 30.06 in Calm     98% 0.00 in 0.00 W/m2 CLR
22:29 69.3 °F 68.7 °F 30.05 in Calm     98% 0.00 in 0.00 W/m2 CLR
22:34 69.1 °F 68.5 °F 30.05 in Calm     98% 0.00 in 0.00 W/m2 CLR
22:39 68.9 °F 68.3 °F 30.05 in Calm     98% 0.00 in 0.00 W/m2 CLR
22:44 68.9 °F 68.3 °F 30.05 in Calm     98% 0.00 in 0.00 W/m2 CLR
22:49 68.5 °F 68.0 °F 30.06 in Calm     98% 0.00 in 0.00 W/m2 CLR
22:54 68.4 °F 67.8 °F 30.06 in Calm     98% 0.00 in 0.00 W/m2 CLR
22:59 68.2 °F 67.6 °F 30.06 in Calm     98% 0.00 in 0.00 W/m2 CLR
23:04 68.2 °F 67.6 °F 30.06 in Calm     98% 0.00 in 0.00 W/m2 CLR
23:09 67.8 °F 67.2 °F 30.06 in Calm     98% 0.00 in 0.00 W/m2 CLR
23:14 67.6 °F 67.1 °F 30.05 in Calm     98% 0.00 in 0.00 W/m2 CLR
23:19 67.5 °F 66.9 °F 30.06 in Calm     98% 0.00 in 0.00 W/m2 CLR
23:24 67.5 °F 66.9 °F 30.06 in Calm     98% 0.00 in 0.00 W/m2 CLR
23:29 67.3 °F 66.7 °F 30.06 in Calm     98% 0.00 in 0.00 W/m2 CLR
23:34 67.3 °F 66.7 °F 30.05 in Calm     98% 0.00 in 0.00 W/m2 CLR
23:39 66.9 °F 66.3 °F 30.05 in West 1.2 mph 0.2 mph 98% 0.00 in 0.00 W/m2 CLR
23:44 66.9 °F 66.3 °F 30.06 in Calm     98% 0.00 in 0.00 W/m2 CLR
23:49 66.9 °F 66.3 °F 30.06 in Calm     98% 0.00 in 0.00 W/m2 CLR
23:54 66.9 °F 66.3 °F 30.05 in Calm     98% 0.00 in 0.00 W/m2 CLR
23:59 66.6 °F 66.0 °F 30.05 in Calm     98% 0.00 in 0.00 W/m2 CLR
Juneau County Weather
Compliments of Weather Underground - 5.5 mb